Watsonville, CA

9:06 AM PDT on October 17, 2019 (GMT -0700)
Watsonville Municipal

Weather History for KWVI - August, 2019

Change the Weather History Date:

Friday, August 23, 2019

  Actual Average Record
Temperature  
Mean Temperature 65 °F 64 °F  
Max Temperature 71 °F 75 °F 94 °F (2010)
Min Temperature 58 °F 53 °F 51 °F (2002)
Degree Days  
Heating Degree Days 0    
Month to date heating degree days 11  
Since 1 June heating degree days 149  
Since 1 July heating degree days 58  
Cooling Degree Days 0    
Month to date cooling degree days 39  
Year to date cooling degree days 93  
Since 1 June cooling degree days 93  
Growing Degree Days 14 (Base 50)    
Moisture  
Dew Point 57 °F    
Average Humidity 77    
Maximum Humidity 93    
Minimum Humidity 61    
Precipitation  
Precipitation 0.00 in - 0.02 in (1989)
Month to date precipitation 0.02  
Year to date precipitation 22.78  
Sea Level Pressure  
Sea Level Pressure 29.83 in    
Wind  
Wind Speed 6 mph (WSW)    
Max Wind Speed 17 mph    
Max Gust Speed 22 mph    
Visibility 7 miles    
Events Fog    
T = Trace of Precipitation, MM = Missing Value Source: NWS Daily Summary

Daily Weather History Graph

Daily Weather History Graph

Search for Another Location

Airport or City:

Astronomy

Aug. 23, 2019 Rise Set
Actual Time 6:30 AM PDT 7:48 PM PDT
Civil Twilight 6:03 AM PDT 8:15 PM PDT
Nautical Twilight 5:31 AM PDT 8:47 PM PDT
Astronomical Twilight 4:57 AM PDT 9:21 PM PDT
Moon No Moon Rise 2:02 PM PDT (8/23)
Length of Visible Light 14h 11m
Length of Day
13h 17m
Waning Gibbous, 48% of the Moon is Illuminated
Aug 23
Waning Gibbous
Aug 30
New
Sep 5
First Quarter
Sep 13
Full
Sep 21
Last Quarter

Hourly Weather History & Observations

Time (PDT) Temp. Dew Point Humidity Pressure Visibility Wind Dir Wind Speed Gust Speed Precip Events Conditions
12:17 AM 61.0 °F 57.0 °F 87% 29.76 in 8.0 mi Calm Calm - N/A   Scattered Clouds
12:46 AM 59.0 °F 55.9 °F 90% 29.76 in 8.0 mi Calm Calm - N/A   Mostly Cloudy
12:53 AM 59.0 °F 55.9 °F 90% 29.76 in 8.0 mi SW 3.5 mph - N/A   Mostly Cloudy
1:25 AM 59.0 °F 55.9 °F 90% 29.76 in 7.0 mi Calm Calm - N/A   Overcast
1:53 AM 59.0 °F 55.9 °F 90% 29.75 in 7.0 mi Calm Calm - N/A   Overcast
2:48 AM 60.8 °F 57.2 °F 88% 29.76 in 4.0 mi South 4.6 mph - N/A   Overcast
2:53 AM 60.1 °F 57.0 °F 90% 29.76 in 4.0 mi South 4.6 mph - N/A   Overcast
3:12 AM 59.0 °F 57.0 °F 93% 29.77 in 1.8 mi SE 3.5 mph - N/A   Overcast
3:27 AM 59.0 °F 57.0 °F 93% 29.77 in 1.0 mi SE 3.5 mph - N/A   Overcast
3:39 AM 59.0 °F 57.0 °F 93% 29.77 in 2.0 mi SSE 4.6 mph - N/A   Overcast
3:53 AM 59.0 °F 57.0 °F 93% 29.77 in 1.5 mi SE 6.9 mph - N/A   Overcast
4:12 AM 59.0 °F 57.0 °F 93% 29.77 in 1.0 mi SE 5.8 mph - N/A   Mist
4:25 AM 59.0 °F 57.0 °F 93% 29.77 in 0.8 mi East 4.6 mph - N/A   Mist
4:51 AM 59.0 °F 57.2 °F 94% 29.78 in 1.0 mi ENE 4.6 mph - N/A   Mist
4:53 AM 59.0 °F 57.0 °F 93% 29.78 in 1.0 mi ENE 4.6 mph - N/A   Mist
5:41 AM 59.0 °F 57.9 °F 96% 29.80 in 0.5 mi Calm Calm - N/A Fog Fog
5:53 AM 59.0 °F 57.9 °F 96% 29.80 in 0.8 mi Calm Calm - N/A   Mist
6:01 AM 59.0 °F 57.0 °F 93% 29.80 in 1.5 mi South 5.8 mph - N/A   Overcast
6:06 AM 59.0 °F 57.0 °F 93% 29.80 in 3.0 mi SSW 6.9 mph - N/A   Overcast
6:40 AM 57.9 °F 55.9 °F 93% 29.81 in 10.0 mi SSW 5.8 mph - N/A   Overcast
6:53 AM 57.9 °F 55.9 °F 93% 29.81 in 10.0 mi SSW 5.8 mph - N/A   Overcast
7:00 AM 57.9 °F 55.9 °F 93% 29.82 in 10.0 mi SSW 5.8 mph - N/A   Overcast
7:53 AM 59.0 °F 57.0 °F 93% 29.84 in 10.0 mi West 3.5 mph - N/A   Overcast
8:53 AM 61.0 °F 57.0 °F 87% 29.87 in 5.0 mi WNW 3.5 mph - N/A   Overcast
9:53 AM 61.0 °F 57.0 °F 87% 29.88 in 8.0 mi Variable 3.5 mph - N/A   Overcast
10:25 AM 63.0 °F 57.0 °F 81% 29.88 in 10.0 mi WSW 5.8 mph - N/A   Overcast
10:53 AM 64.0 °F 57.0 °F 78% 29.88 in 10.0 mi West 6.9 mph - N/A   Overcast
11:27 AM 69.1 °F 57.0 °F 65% 29.87 in 10.0 mi West 6.9 mph - N/A   Overcast
11:51 AM 68.0 °F 57.2 °F 68% 29.87 in 10.0 mi West 11.5 mph - N/A   Scattered Clouds
11:53 AM 69.1 °F 57.9 °F 68% 29.86 in 10.0 mi West 11.5 mph - N/A   Partly Cloudy
12:07 PM 69.1 °F 57.0 °F 65% 29.86 in 10.0 mi West 12.7 mph 18.4 mph N/A   Partly Cloudy
12:53 PM 69.1 °F 57.0 °F 65% 29.87 in 10.0 mi West 15.0 mph - N/A   Clear
1:49 PM 69.8 °F 57.2 °F 64% 29.88 in 10.0 mi West 12.7 mph 21.9 mph N/A   Mostly Cloudy
1:53 PM 68.0 °F 57.0 °F 68% 29.88 in 10.0 mi West 15.0 mph 21.9 mph N/A   Mostly Cloudy
2:53 PM 69.1 °F 55.9 °F 63% 29.88 in 10.0 mi WSW 12.7 mph 20.7 mph N/A   Scattered Clouds
3:53 PM 70.0 °F 55.9 °F 61% 29.87 in 10.0 mi West 15.0 mph 20.7 mph N/A   Partly Cloudy
4:06 PM 66.9 °F 55.9 °F 68% 29.86 in 10.0 mi West 11.5 mph - N/A   Mostly Cloudy
4:30 PM 68.0 °F 55.9 °F 65% 29.86 in 10.0 mi West 8.1 mph - N/A   Overcast
4:53 PM 66.9 °F 55.9 °F 68% 29.86 in 10.0 mi Variable 6.9 mph - N/A   Overcast
5:39 PM 66.0 °F 55.9 °F 70% 29.85 in 10.0 mi West 11.5 mph - N/A   Scattered Clouds
5:53 PM 66.9 °F 55.9 °F 68% 29.86 in 10.0 mi West 11.5 mph - N/A   Clear
6:53 PM 64.9 °F 55.9 °F 73% 29.86 in 10.0 mi West 10.4 mph - N/A   Clear
7:24 PM 63.0 °F 55.9 °F 78% 29.86 in 10.0 mi West 8.1 mph - N/A   Mostly Cloudy
7:53 PM 63.0 °F 57.0 °F 81% 29.88 in 10.0 mi West 4.6 mph - N/A   Overcast
8:53 PM 63.0 °F 57.0 °F 81% 29.88 in 10.0 mi West 4.6 mph - N/A   Overcast
9:53 PM 63.0 °F 57.0 °F 81% 29.89 in 10.0 mi NW 4.6 mph - N/A   Overcast
10:53 PM 62.1 °F 57.0 °F 84% 29.89 in 10.0 mi Calm Calm - N/A   Overcast
11:53 PM 62.1 °F 57.0 °F 84% 29.88 in 10.0 mi West 3.5 mph - N/A   Overcast